Date,TemperatureHighF,TemperatureAvgF,TemperatureLowF,DewpointHighF,DewpointAvgF,DewpointLowF,HumidityHigh,HumidityAvg,HumidityLow,PressureMaxIn,PressureMinIn,WindSpeedMaxMPH,WindSpeedAvgMPH,GustSpeedMaxMPH,PrecipitationSumIn
2013-1-1,34,32,27,32,28,19,95,86,70,30.19,30.07,12,2,16,0.00
2013-1-2,31,26,20,22,19,16,89,74,58,30.29,30.17,11,1,14,0.01
2013-1-3,36,27,18,23,18,14,89,72,49,30.37,30.25,25,3,40,0.01
2013-1-4,37,32,28,24,22,20,80,69,53,30.40,30.33,25,5,34,0.00
2013-1-5,40,32,24,29,25,20,90,76,60,30.43,30.21,10,2,14,0.00
2013-1-6,40,34,28,33,28,21,80,76,71,30.39,30.06,32,6,48,0.00
2013-1-7,39,30,21,28,23,18,92,77,59,30.53,30.29,11,1,20,0.00
2013-1-8,50,36,24,34,28,21,88,74,51,30.38,30.27,12,2,18,0.00
2013-1-9,53,43,31,46,37,28,93,79,56,30.55,30.25,18,2,28,0.05
2013-1-10,46,37,27,40,32,25,94,83,68,30.55,30.13,23,4,30,0.06
2013-1-11,61,54,46,55,49,40,95,83,68,30.13,29.92,22,6,43,0.38
2013-1-12,65,60,54,61,58,51,96,91,83,30.05,29.83,18,4,33,0.00
2013-1-13,64,55,36,60,53,34,96,92,79,30.15,29.76,30,8,37,0.54
2013-1-14,36,28,25,34,23,20,92,80,70,30.49,30.15,20,6,31,0.00
2013-1-15,32,29,24,26,23,20,87,79,71,30.42,30.11,16,4,22,0.00
2013-1-16,36,32,30,30,28,26,91,86,74,30.14,30.01,9,2,13,0.03
2013-1-17,40,33,29,30,27,18,90,78,65,30.42,30.14,19,3,28,0.00
2013-1-18,37,29,19,24,20,15,90,68,49,30.58,30.29,20,4,26,0.00
2013-1-19,53,44,35,29,26,22,66,50,31,30.29,29.96,30,9,47,0.00
2013-1-20,46,35,28,35,16,6,71,47,31,30.26,29.95,36,9,43,0.00
2013-1-21,28,23,14,18,9,-1,79,56,43,30.30,30.14,34,10,41,0.00
2013-1-22,19,13,7,3,-2,-4,64,50,37,30.47,30.30,22,7,30,0.00
2013-1-23,23,19,12,10,4,-2,67,52,45,30.41,30.15,16,2,21,0.00
2013-1-24,24,20,15,10,4,-1,63,51,33,30.64,30.14,30,6,44,0.00
2013-1-25,26,23,20,21,14,5,84,70,50,30.50,30.10,16,3,25,0.01
2013-1-26,32,25,18,21,18,16,90,75,55,30.49,30.19,15,2,20,0.01
2013-1-27,38,29,19,36,22,15,93,76,57,30.50,30.21,16,4,24,0.19
2013-1-28,52,47,38,51,45,36,96,93,80,30.22,30.06,21,6,33,0.15
2013-1-29,65,58,50,57,53,49,96,84,70,30.07,29.61,22,8,35,0.00
2013-1-30,68,54,33,59,49,24,95,84,68,29.62,29.29,37,12,59,0.25
2013-1-31,33,28,18,25,18,11,88,68,50,30.07,29.58,37,12,50,0.00
2013-2-1,19,13,8,13,3,-2,83,64,55,30.48,30.08,34,8,44,0.00
2013-2-2,32,24,12,27,19,6,87,82,73,30.40,30.04,15,3,30,0.03
2013-2-3,28,24,17,23,17,12,82,76,65,30.18,29.98,22,5,34,0.02
2013-2-4,34,26,14,32,22,10,95,85,68,30.18,29.88,15,2,22,0.02
2013-2-5,37,34,30,33,30,26,96,86,76,30.04,29.88,18,3,22,0.11
2013-2-6,38,34,29,31,28,25,87,77,68,30.30,30.04,20,3,26,0.00
2013-2-7,58,43,31,37,32,26,85,67,42,30.25,29.84,12,3,20,0.00
2013-2-8,50,38,32,45,31,22,92,77,56,30.36,29.80,29,12,36,0.08
2013-2-9,40,31,21,23,20,18,89,65,43,30.47,30.27,12,3,20,0.00
2013-2-10,56,43,31,43,30,20,85,61,36,30.27,29.82,18,7,35,0.03
2013-2-11,51,48,38,49,36,26,93,65,44,30.07,29.79,30,9,51,0.00
2013-2-12,49,38,31,29,26,22,80,63,37,30.17,29.93,17,2,25,0.00
2013-2-13,35,32,27,31,28,25,94,86,70,29.94,29.80,13,2,16,0.08
2013-2-14,52,39,29,40,33,28,95,81,53,30.03,29.86,21,5,34,0.02
2013-2-15,41,34,27,32,27,22,91,77,54,30.19,30.01,30,5,43,0.00
2013-2-16,30,24,18,23,16,7,91,70,47,30.18,30.08,26,7,32,0.00
2013-2-17,31,22,13,13,9,4,87,60,34,30.30,30.16,17,3,26,0.00
2013-2-18,58,40,20,39,24,9,76,53,40,30.27,29.78,30,8,51,0.04
2013-2-19,46,34,25,40,26,13,92,73,55,30.16,29.68,33,11,52,0.14
2013-2-20,29,24,21,15,12,10,74,60,47,30.36,30.16,26,8,33,0.00
2013-2-21,32,26,19,25,18,12,84,70,61,30.41,30.09,23,6,37,0.01
2013-2-22,46,37,30,42,34,25,96,89,77,30.11,29.93,20,4,29,0.12
2013-2-23,44,37,33,34,28,23,93,70,45,30.03,29.92,19,3,24,0.00
2013-2-24,42,33,27,24,23,21,83,68,46,30.20,29.97,20,4,27,0.00
2013-2-25,44,35,22,26,23,19,89,64,44,30.22,29.93,25,5,36,0.00
2013-2-26,50,42,36,47,37,23,94,82,56,29.93,29.38,29,8,51,0.47
2013-2-27,41,37,33,40,34,30,94,88,74,29.76,29.54,23,5,39,0.04
2013-2-28,36,34,32,33,31,28,91,87,83,29.98,29.73,20,5,32,0.03
2013-3-1,37,34,30,34,31,22,95,88,73,30.07,29.95,13,2,20,0.04
2013-3-2,30,28,27,24,21,18,82,75,68,30.12,30.05,18,6,24,0.00
2013-3-3,31,28,22,24,20,17,82,73,63,30.14,30.08,23,5,30,0.00
2013-3-4,43,31,17,25,20,14,92,67,42,30.22,30.03,15,2,20,0.00
2013-3-5,39,37,31,38,31,24,95,82,58,30.04,29.59,21,7,29,0.30
2013-3-6,32,30,28,29,28,27,95,92,88,30.30,29.67,21,8,31,0.02
2013-3-7,38,33,31,32,30,27,91,86,76,30.42,30.28,12,2,14,0.10
2013-3-8,42,34,26,28,26,23,90,73,51,30.51,30.41,13,2,20,0.00
2013-3-9,57,43,28,36,31,25,89,65,41,30.42,30.06,19,4,29,0.00
2013-3-10,68,59,51,43,34,30,57,39,27,30.06,29.84,19,6,33,0.02
2013-3-11,58,48,38,52,44,32,95,86,58,29.88,29.61,26,6,46,0.96
2013-3-12,46,39,35,33,29,27,84,70,53,30.09,29.88,33,5,41,0.00
2013-3-13,36,30,27,31,24,17,92,77,60,30.36,30.03,31,11,40,0.00
2013-3-14,45,32,20,24,19,12,91,62,28,30.41,30.20,20,2,26,0.00
2013-3-15,55,42,30,39,32,21,89,70,51,30.21,29.80,14,2,24,0.00
2013-3-16,61,48,38,52,42,32,95,80,59,30.03,29.63,30,8,43,0.18
2013-3-17,38,36,34,33,30,28,92,81,75,30.19,30.02,17,5,22,0.12
2013-3-18,49,42,35,48,40,33,96,93,74,30.02,29.65,29,8,38,0.70
2013-3-19,45,38,30,34,22,9,88,55,24,30.14,29.86,36,11,54,0.00
2013-3-20,39,33,25,22,16,10,72,51,34,30.14,29.97,32,11,43,0.00
2013-3-21,33,26,21,16,11,7,72,54,38,30.09,29.98,24,7,34,0.00
2013-3-22,44,31,19,20,16,12,87,58,28,30.13,30.02,15,1,20,0.00
2013-3-23,52,40,28,25,22,18,75,52,28,30.10,29.90,13,2,17,0.00
2013-3-24,40,35,33,33,28,23,95,78,51,29.90,29.42,24,6,36,0.14
2013-3-25,34,33,30,32,31,29,96,93,88,29.97,29.44,25,8,31,0.19
2013-3-26,40,35,32,32,29,24,91,78,56,30.27,29.98,25,9,32,0.10
2013-3-27,44,37,29,29,25,23,85,64,46,30.34,30.26,22,5,31,0.00
2013-3-28,52,39,27,27,24,21,84,56,34,30.39,30.31,19,3,24,0.00
2013-3-29,57,42,27,32,27,24,90,61,31,30.37,30.23,16,2,20,0.00
2013-3-30,61,46,31,36,32,28,91,60,34,30.27,29.97,14,2,28,0.00
2013-3-31,58,50,46,48,42,35,93,77,56,29.97,29.79,18,2,32,0.02
2013-4-1,50,42,36,40,27,17,89,57,31,30.15,29.81,26,8,33,0.01
2013-4-2,48,37,24,23,17,11,82,47,25,30.30,30.14,21,4,29,0.00
2013-4-3,47,36,24,24,16,11,83,48,25,30.45,30.29,18,3,25,0.00
2013-4-4,55,42,33,27,21,16,66,43,26,30.37,30.02,16,3,26,0.00
2013-4-5,62,47,31,34,27,23,84,51,24,30.15,30.00,23,4,30,0.00
2013-4-6,68,52,38,37,30,21,63,43,27,30.23,29.93,19,5,31,0.00
2013-4-7,73,63,57,56,45,34,91,52,39,30.00,29.87,22,5,43,0.13
2013-4-8,73,62,52,55,52,47,94,72,49,30.01,29.89,23,4,38,0.01
2013-4-9,81,68,54,60,54,50,88,64,39,30.05,29.92,26,5,45,0.00
2013-4-10,84,74,66,63,59,56,75,60,44,29.96,29.76,23,6,39,0.00
2013-4-11,71,64,58,63,58,54,95,83,63,29.81,29.54,23,3,31,0.54
2013-4-12,58,48,41,57,40,31,96,75,54,29.95,29.51,29,7,39,0.10
2013-4-13,60,47,35,38,34,29,92,64,32,30.06,29.95,29,5,46,0.00
2013-4-14,71,55,39,46,40,34,84,59,34,30.08,29.89,19,4,32,0.00
2013-4-15,69,62,55,55,51,43,83,66,50,30.00,29.90,12,4,21,0.00
2013-4-16,81,65,54,65,58,50,95,78,53,30.18,29.96,37,4,48,0.41
2013-4-17,78,66,57,64,60,56,96,83,57,30.20,29.97,18,4,30,0.08
2013-4-18,83,72,63,63,58,50,80,63,38,29.97,29.68,27,9,46,0.00
2013-4-19,68,46,39,60,39,30,93,76,57,30.03,29.42,29,8,43,0.66
2013-4-20,52,43,36,34,29,22,88,60,31,30.43,30.03,24,5,33,0.00
2013-4-21,56,46,34,35,29,25,73,55,34,30.55,30.39,16,3,25,0.00
2013-4-22,71,54,36,44,37,29,86,56,28,30.39,30.15,14,2,22,0.00
2013-4-23,72,59,44,53,47,40,88,66,48,30.16,29.88,14,3,26,0.00
2013-4-24,64,52,38,56,44,34,95,77,59,30.26,29.79,25,6,38,0.73
2013-4-25,60,47,34,41,35,28,95,68,36,30.40,30.26,23,3,34,0.01
2013-4-26,62,50,33,42,34,26,94,60,29,30.49,30.35,11,1,16,0.00
2013-4-27,64,54,41,51,43,36,91,67,39,30.36,30.06,16,3,24,0.00
2013-4-28,69,60,55,61,55,51,94,85,67,30.07,29.82,12,3,25,0.12
2013-4-29,63,58,53,58,54,50,95,87,72,30.01,29.90,6,1,12,0.03
2013-4-30,76,62,46,59,52,45,96,73,42,30.06,29.98,15,2,20,0.00
2013-5-1,81,68,53,62,55,50,94,66,40,30.17,30.06,17,2,26,0.00
2013-5-2,74,67,59,58,54,50,80,63,52,30.21,30.09,16,3,28,0.00
2013-5-3,75,66,59,59,52,39,88,62,33,30.09,29.96,21,5,39,0.00
2013-5-4,71,64,58,52,46,39,74,52,40,30.00,29.91,19,6,33,0.00
2013-5-5,59,55,52,52,49,45,96,81,63,30.00,29.92,11,1,22,0.83
2013-5-6,62,57,52,56,54,51,96,90,78,29.96,29.90,18,3,29,0.57
2013-5-7,73,61,54,61,57,53,96,87,59,29.98,29.91,9,0,18,0.02
2013-5-8,77,63,53,61,56,52,96,82,49,30.01,29.92,14,1,21,0.03
2013-5-9,79,66,54,69,58,52,96,77,41,30.03,29.94,8,0,17,0.06
2013-5-10,70,65,61,62,60,57,96,85,68,29.94,29.82,11,2,27,0.88
2013-5-11,62,54,47,61,50,42,96,88,74,30.02,29.85,12,1,21,0.11
2013-5-12,57,48,40,42,37,30,94,68,39,30.15,30.02,12,2,25,0.00
2013-5-13,60,50,39,40,36,28,92,61,31,30.20,30.12,14,1,20,0.00
2013-5-14,80,62,43,58,47,33,88,59,42,30.17,29.83,13,3,38,0.00
2013-5-15,86,77,67,64,58,52,73,53,35,29.91,29.81,16,3,50,0.00
2013-5-16,76,68,62,68,60,54,94,77,56,29.99,29.84,6,1,12,0.00
2013-5-17,79,67,59,68,63,57,96,87,63,30.06,29.99,11,1,20,0.04
2013-5-18,79,68,63,68,64,62,95,89,61,30.06,29.97,11,1,20,0.20
2013-5-19,82,71,62,70,65,61,96,82,57,30.01,29.89,12,1,16,0.00
2013-5-20,84,76,68,72,68,65,92,78,61,30.01,29.88,18,3,29,0.00
2013-5-21,84,75,67,69,65,63,88,73,49,29.97,29.81,13,2,27,0.00
2013-5-22,80,70,63,66,63,59,94,79,56,29.86,29.74,15,3,32,0.34
2013-5-23,71,64,54,63,59,47,95,85,60,30.07,29.80,13,2,28,0.06
2013-5-24,66,55,48,49,44,38,83,66,42,30.33,30.08,9,2,18,0.00
2013-5-25,66,55,44,51,44,41,92,70,45,30.41,30.23,10,1,15,0.00
2013-5-26,70,62,54,52,48,42,86,64,43,30.32,30.18,11,1,20,0.00
2013-5-27,82,69,54,63,54,45,91,61,42,30.21,29.96,18,3,28,0.03
2013-5-28,82,75,67,67,61,57,79,61,47,30.03,29.93,13,3,32,0.00
2013-5-29,86,77,68,66,62,58,74,60,45,30.08,29.98,12,2,31,0.00
2013-5-30,86,78,69,69,65,62,80,66,52,30.15,30.00,15,3,28,0.00
2013-5-31,83,74,69,69,65,62,93,76,56,30.06,29.95,16,4,30,0.00
2013-6-1,81,74,69,69,67,64,93,79,63,29.97,29.78,13,4,28,0.08
2013-6-2,78,70,66,68,62,58,93,77,54,29.92,29.82,10,1,18,0.06
2013-6-3,70,63,57,60,54,51,85,73,58,30.06,29.91,8,1,20,0.00
2013-6-4,75,62,51,53,48,38,93,65,29,30.16,30.06,13,1,25,0.00
2013-6-5,81,67,55,67,58,50,91,73,49,30.08,29.86,9,1,18,0.00
2013-6-6,72,67,63,68,64,60,95,90,80,29.87,29.77,8,1,12,0.00
2013-6-7,74,66,59,63,59,56,93,80,59,29.89,29.79,7,0,13,0.00
2013-6-8,77,67,58,63,59,54,91,75,55,30.03,29.88,11,1,16,0.00
2013-6-9,81,71,61,67,63,58,93,76,50,30.07,29.90,15,3,29,0.00
2013-6-10,78,69,65,69,65,62,96,86,64,29.91,29.78,14,2,28,0.98
2013-6-11,84,73,63,68,64,61,93,75,49,29.97,29.86,7,1,20,0.00
2013-6-12,88,79,71,77,70,65,86,75,57,29.92,29.73,10,1,18,0.00
2013-6-13,81,74,67,72,66,56,95,76,56,29.91,29.59,20,2,31,0.42
2013-6-14,79,68,59,64,58,54,88,71,50,30.05,29.91,6,1,10,0.00
2013-6-15,81,71,58,65,60,55,94,72,50,30.12,29.95,15,1,25,0.00
2013-6-16,77,72,68,69,65,61,90,81,69,30.03,29.94,7,0,16,0.02
2013-6-17,84,74,66,72,67,64,94,80,56,29.99,29.87,6,0,12,0.00
2013-6-18,82,71,66,71,66,63,93,85,61,29.99,29.85,7,0,12,0.09
2013-6-19,79,69,58,63,58,54,92,72,45,30.12,29.97,18,0,20,0.00
2013-6-20,84,72,58,64,58,55,92,67,38,30.20,30.11,11,1,16,0.00
2013-6-21,87,75,62,68,63,59,91,68,45,30.20,30.11,18,2,22,0.00
2013-6-22,89,78,69,72,67,64,88,72,50,30.18,30.05,15,1,20,0.00
2013-6-23,88,76,67,71,66,63,93,73,43,30.14,30.04,12,1,29,0.00
2013-6-24,86,76,67,72,67,64,92,76,56,30.14,30.02,9,1,20,0.00
2013-6-25,90,79,69,75,70,66,93,76,54,30.06,29.88,9,2,24,0.00
2013-6-26,85,74,68,74,69,65,95,85,66,29.93,29.77,18,2,24,0.74
2013-6-27,84,74,67,74,69,66,96,85,60,29.79,29.69,7,1,20,0.02
2013-6-28,87,75,64,70,65,58,95,75,39,29.69,29.57,18,2,27,0.08
2013-6-29,76,68,63,71,65,61,95,90,67,29.66,29.57,6,0,16,0.39
2013-6-30,81,70,63,68,64,60,95,83,49,29.82,29.64,12,1,20,0.01
2013-7-1,77,69,64,69,66,62,94,89,72,29.91,29.79,6,0,10,0.08
2013-7-2,81,72,65,70,66,64,96,82,61,30.01,29.90,13,2,20,0.00
2013-7-3,81,74,68,69,67,65,92,79,60,30.12,30.01,12,2,21,0.00
2013-7-4,73,70,68,70,67,64,95,91,79,30.16,30.06,14,2,21,0.79
2013-7-5,75,70,66,71,68,65,97,92,81,30.15,30.09,10,2,20,0.11
2013-7-6,77,71,68,73,69,65,96,92,78,30.13,30.04,26,3,39,0.42
2013-7-7,82,73,67,71,66,65,95,82,60,30.12,30.02,13,1,17,0.00
2013-7-8,86,77,68,73,69,65,92,78,58,30.13,30.03,8,1,21,0.00
2013-7-9,88,79,73,77,72,69,95,82,63,30.07,29.97,13,1,36,0.00
2013-7-10,89,77,69,78,72,67,94,85,65,29.98,29.82,14,2,25,0.34
2013-7-11,81,72,66,71,66,59,96,83,65,30.01,29.91,7,0,20,0.00
2013-7-12,79,69,59,64,60,57,93,74,51,30.09,30.01,11,1,16,0.00
2013-7-13,84,74,64,69,64,60,90,74,55,30.13,30.05,14,2,24,0.00
2013-7-14,88,78,69,74,70,66,95,77,58,30.20,30.11,22,2,26,0.00
2013-7-15,89,80,70,75,71,68,95,77,51,30.29,30.20,12,1,16,0.00
2013-7-16,91,80,71,76,71,67,94,75,49,30.32,30.24,8,0,12,0.00
2013-7-17,89,80,72,77,73,70,94,80,64,30.31,30.17,6,0,12,0.00
2013-7-18,92,82,74,75,72,67,93,74,48,30.18,30.01,6,0,10,0.00
2013-7-19,90,80,73,76,74,64,94,82,57,30.03,29.89,16,1,30,0.00
2013-7-20,88,78,73,77,71,64,90,81,55,29.91,29.83,12,1,28,0.04
2013-7-21,85,76,69,74,70,67,94,81,60,29.96,29.86,4,0,6,0.00
2013-7-22,79,73,70,74,70,68,96,93,77,29.91,29.76,6,0,10,0.05
2013-7-23,86,75,70,76,71,68,96,88,64,29.82,29.72,8,1,14,0.04
2013-7-24,76,68,60,69,62,56,95,82,65,29.99,29.80,4,0,7,0.00
2013-7-25,77,67,57,62,57,54,92,74,50,30.09,29.99,4,0,7,0.00
2013-7-26,80,69,57,66,60,55,95,75,51,30.09,29.96,12,1,20,0.00
2013-7-27,73,68,64,69,64,58,95,87,70,29.96,29.84,7,0,12,0.29
2013-7-28,74,65,56,58,53,47,89,68,46,30.07,29.91,9,1,16,0.00
2013-7-29,77,66,56,62,57,54,92,73,49,30.18,30.06,7,0,20,0.00
2013-7-30,79,68,57,65,60,55,95,77,50,30.23,30.11,6,0,10,0.00
2013-7-31,75,70,65,68,65,62,95,84,73,30.12,29.94,2,0,4,0.08
2013-8-1,77,70,65,68,64,55,94,82,51,29.99,29.90,2,0,4,0.00
2013-8-2,82,71,60,66,61,57,93,73,51,30.02,29.95,5,0,12,0.00
2013-8-3,79,72,67,71,66,63,93,81,67,30.02,29.95,0,0,1,0.03
2013-8-4,77,68,61,64,59,54,91,72,49,30.12,30.02,1,0,2,0.00
2013-8-5,78,68,57,61,57,53,94,71,45,30.12,29.97,5,0,7,0.00
2013-8-6,80,73,66,68,63,58,86,70,59,29.99,29.92,1,0,2,0.00
2013-8-7,84,76,68,74,70,66,93,84,68,29.95,29.86,6,0,12,0.00
2013-8-8,84,76,71,76,72,69,94,87,69,29.95,29.88,11,0,22,0.45
2013-8-9,82,74,69,75,70,68,96,90,72,30.02,29.89,4,0,7,0.83
2013-8-10,82,75,69,70,69,67,95,81,62,30.10,30.01,8,0,12,0.00
2013-8-11,85,76,70,73,69,64,94,80,56,30.09,30.01,5,0,6,0.00
2013-8-12,84,74,65,71,67,63,95,80,56,30.07,29.86,8,1,17,0.00
2013-8-13,78,72,62,71,64,51,92,77,58,30.05,29.83,5,0,7,0.00
2013-8-14,71,61,54,57,52,49,91,72,49,30.17,30.05,5,0,8,0.00
2013-8-15,73,62,51,58,54,49,95,76,51,30.19,30.09,12,1,20,0.00
2013-8-16,77,66,54,61,56,52,94,74,48,30.15,30.10,9,0,20,0.00
2013-8-17,82,69,58,65,59,55,91,73,45,30.18,30.11,15,2,21,0.00
2013-8-18,79,69,60,68,63,58,94,82,59,30.17,30.09,16,1,20,0.00
2013-8-19,83,72,62,68,62,57,95,75,46,30.14,30.06,9,0,12,0.00
2013-8-20,84,73,62,68,64,60,95,75,49,30.17,30.08,16,2,22,0.00
2013-8-21,83,75,66,73,67,63,92,78,57,30.16,30.05,9,1,20,0.00
2013-8-22,85,74,67,72,68,64,94,81,55,30.11,30.02,9,0,13,0.01
2013-8-23,83,73,68,70,67,63,96,82,54,30.14,30.02,8,0,12,0.02
2013-8-24,85,72,60,67,62,58,93,72,42,30.26,30.14,7,0,12,0.00
2013-8-25,86,72,60,65,61,55,94,71,40,30.34,30.22,8,1,13,0.00
2013-8-26,87,75,65,72,66,62,91,75,50,30.25,30.07,4,0,8,0.00
2013-8-27,88,79,71,74,71,68,93,78,59,30.07,29.95,6,0,10,0.00
2013-8-28,94,82,74,74,72,68,92,74,44,29.96,29.84,8,1,13,0.00
2013-8-29,84,76,70,73,70,67,94,80,62,30.03,29.93,4,0,7,0.00
2013-8-30,88,76,66,72,67,64,95,76,48,29.99,29.83,0,0,1,0.00
2013-8-31,88,76,68,74,70,66,95,83,61,29.96,29.73,17,2,25,1.39
2013-9-1,84,74,67,73,69,66,95,84,62,29.84,29.75,14,1,24,0.00
2013-9-2,86,77,71,73,69,60,94,78,55,29.86,29.77,6,0,12,0.00
2013-9-3,74,67,60,61,58,55,90,75,52,30.06,29.86,1,0,4,0.00
2013-9-4,80,67,54,63,58,52,95,76,48,30.16,30.06,1,0,1,0.00
2013-9-5,82,70,59,66,61,54,94,74,47,30.18,30.12,0,0,0,0.00
2013-9-6,78,67,55,57,53,50,86,64,39,30.24,30.11,0,0,0,0.00
2013-9-7,85,70,57,67,60,54,92,74,51,30.11,29.94,0,0,0,0.00
2013-9-8,85,76,66,71,67,64,93,76,53,29.98,29.92,0,0,0,0.00
2013-9-9,89,78,69,71,68,66,93,73,48,30.03,29.95,0,0,0,0.00
2013-9-10,91,81,74,75,72,68,86,73,54,30.12,30.02,0,0,0,0.00
2013-9-11,89,79,72,75,71,68,89,76,55,30.15,30.01,0,0,0,0.00
2013-9-12,79,74,70,71,69,64,93,84,65,30.01,29.86,0,0,0,0.04
2013-9-13,70,60,53,64,51,45,87,72,52,30.09,29.89,0,0,0,0.00
2013-9-14,70,57,46,52,46,43,93,72,42,30.19,30.09,0,0,0,0.00
2013-9-15,77,62,47,60,53,45,94,73,48,30.16,30.03,0,0,0,0.00
2013-9-16,71,63,57,60,57,52,94,81,59,30.28,30.05,0,0,0,0.00
2013-9-17,75,63,51,57,53,49,93,73,47,30.33,30.17,0,0,0,0.00
2013-9-18,78,66,59,66,60,53,94,80,49,30.17,30.07,0,0,0,0.00
2013-9-19,80,70,66,69,66,64,94,86,65,30.09,29.98,0,0,0,0.00
2013-9-20,85,74,68,70,67,65,96,81,54,30.00,29.77,0,0,0,0.00
2013-9-21,71,65,58,68,60,50,97,85,51,29.88,29.69,0,0,0,0.00
2013-9-22,67,58,50,53,50,46,93,76,52,30.03,29.88,0,0,0,0.00
2013-9-23,68,57,47,54,48,45,93,75,48,30.13,30.02,0,0,0,0.00
2013-9-24,73,59,47,59,52,44,93,78,57,30.10,29.93,0,0,0,0.00
2013-9-25,71,61,54,59,54,50,91,78,50,29.93,29.87,0,0,0,0.00
2013-9-26,77,61,48,62,54,47,96,80,49,30.07,29.93,0,0,0,0.00
2013-9-27,78,63,51,58,53,47,95,73,35,30.18,30.06,0,0,0,0.00
2013-9-28,78,65,52,60,55,50,95,74,45,30.19,30.06,0,0,0,0.00
2013-9-29,72,63,58,62,58,56,92,84,66,30.07,30.02,0,0,0,0.00
2013-9-30,72,66,62,63,60,58,91,83,70,30.04,29.95,0,0,0,0.00
2013-10-1,76,66,58,64,60,56,95,82,62,30.10,30.01,4,0,7,0.00
2013-10-2,77,68,60,69,64,58,95,88,72,30.12,30.03,5,0,7,0.00
2013-10-3,76,71,68,72,68,66,96,90,72,30.09,30.01,6,1,12,0.56
2013-10-4,82,72,65,69,66,63,94,82,58,30.09,30.01,9,2,13,0.00
2013-10-5,79,72,68,71,67,65,96,87,72,30.06,29.94,6,1,10,0.66
2013-10-6,71,64,54,70,63,52,97,96,92,29.96,29.72,12,2,18,1.96
2013-10-7,61,53,46,53,47,44,96,83,58,30.18,29.84,6,1,13,0.00
2013-10-8,66,54,43,53,46,42,96,79,45,30.30,30.18,8,1,13,0.01
2013-10-9,71,56,46,53,48,44,96,76,39,30.25,30.17,8,1,13,0.00
2013-10-10,71,56,44,53,48,42,95,76,42,30.21,30.08,3,0,6,0.00
2013-10-11,75,60,48,57,52,46,95,76,47,30.12,30.02,3,0,4,0.00
2013-10-12,75,62,51,61,56,49,96,81,51,30.12,30.03,4,0,6,0.00
2013-10-13,70,61,53,62,56,50,96,85,64,30.30,30.12,3,0,5,0.00
2013-10-14,71,58,47,54,49,43,90,73,44,30.34,30.19,7,0,8,0.00
2013-10-15,73,63,53,63,58,51,96,85,71,30.20,29.95,7,1,12,0.00
2013-10-16,66,64,63,61,61,60,95,88,83,29.95,29.90,6,2,10,0.11
2013-10-17,53,51,48,48,47,45,90,86,79,30.01,29.94,2,0,4,0.14
2013-10-18,63,49,44,50,45,43,95,85,51,30.07,29.96,6,1,12,0.00
2013-10-19,49,46,41,47,44,39,96,93,89,30.03,29.85,5,1,7,0.15
2013-10-20,60,48,39,44,40,37,93,75,52,30.07,30.01,10,3,18,0.01
2013-10-21,64,54,44,48,42,38,83,65,43,30.05,29.92,12,2,20,0.00
2013-10-22,54,45,34,48,37,29,94,76,43,30.08,29.86,6,1,8,0.10
2013-10-23,45,42,38,42,37,30,96,84,60,30.08,29.74,6,1,9,0.10
2013-10-24,45,40,37,36,34,30,92,80,57,30.30,30.07,7,1,12,0.00
2013-10-25,48,39,32,33,29,25,86,69,43,30.48,30.29,5,1,10,0.01
2013-10-26,52,42,33,39,32,27,83,68,53,30.33,29.97,11,2,21,0.00
2013-10-27,57,45,35,42,36,33,94,73,45,30.13,30.06,6,0,7,0.00
2013-10-28,62,46,33,43,36,31,95,73,35,30.31,30.11,7,1,8,0.00
2013-10-29,58,48,36,49,42,34,94,81,64,30.37,30.22,5,0,6,0.00
2013-10-30,63,58,52,61,56,49,97,95,86,30.22,30.02,7,1,13,0.15
2013-10-31,64,62,60,63,59,56,96,88,77,30.01,29.38,23,6,34,0.95
2013-11-1,64,56,50,62,48,43,96,75,51,29.76,29.38,14,3,20,0.16
2013-11-2,56,50,44,44,40,35,83,68,49,30.10,29.75,10,2,12,0.00
2013-11-3,54,44,37,42,38,35,92,79,53,30.40,30.10,6,1,7,0.00
2013-11-4,58,48,36,44,39,32,93,72,55,30.44,30.32,9,2,16,0.00
2013-11-5,62,54,50,46,42,36,86,66,49,30.43,30.24,7,2,12,0.00
2013-11-6,67,57,46,59,49,37,96,74,54,30.23,29.98,18,5,25,0.36
2013-11-7,48,43,36,44,33,25,95,72,41,30.28,30.03,12,4,16,0.04
2013-11-8,49,39,30,34,30,27,92,70,42,30.41,30.23,10,2,12,0.00
2013-11-9,59,48,37,36,32,27,75,55,36,30.28,30.06,15,5,21,0.00
2013-11-10,50,44,31,39,31,23,87,62,39,30.38,30.11,14,4,18,0.00
2013-11-11,60,44,30,43,32,24,93,67,25,30.34,30.11,12,3,17,0.02
2013-11-12,38,30,25,36,24,18,94,79,56,30.66,30.24,11,3,16,0.02
2013-11-13,38,29,20,24,20,17,92,71,44,30.69,30.44,9,2,13,0.00
2013-11-14,52,39,28,24,21,16,73,51,24,30.44,30.19,14,5,20,0.00
2013-11-15,54,45,37,44,30,20,92,57,39,30.22,30.12,12,4,18,0.06
2013-11-16,60,53,46,54,49,43,93,87,81,30.17,29.93,17,5,26,0.00
2013-11-17,63,60,58,62,57,54,96,91,80,29.93,29.53,24,9,35,2.13
2013-11-18,52,47,39,40,32,26,83,59,42,30.21,29.90,15,6,21,8.45
2013-11-19,41,36,31,30,27,26,86,72,60,30.38,30.21,8,2,12,0.00
2013-11-20,50,38,27,34,29,23,88,71,51,30.37,30.25,10,2,13,0.00
2013-11-21,55,49,40,49,38,30,94,68,55,30.35,30.21,10,2,15,0.03
2013-11-22,54,49,39,53,46,30,96,88,69,30.38,30.18,13,4,20,0.09
2013-11-23,39,32,22,32,21,7,88,66,34,30.59,30.36,14,5,21,0.00
2013-11-24,26,21,15,15,10,6,84,62,47,30.75,30.57,11,2,14,0.00
2013-11-25,42,30,18,30,17,12,87,60,36,30.58,30.23,12,3,20,0.00
2013-11-26,34,32,31,33,31,29,96,94,87,30.24,29.95,4,1,7,0.15
2013-11-27,32,27,22,30,20,13,93,74,61,30.34,29.93,12,5,17,0.00
2013-11-28,32,24,17,20,16,12,84,72,58,30.50,30.34,13,2,20,0.00
2013-11-29,37,27,17,24,20,14,91,76,58,30.67,30.50,6,1,7,0.04
2013-11-30,47,35,24,31,26,20,89,71,51,30.56,30.21,9,2,13,0.00
2013-12-1,52,45,37,37,33,27,70,63,53,30.21,29.97,10,3,14,0.00
2013-12-2,52,45,39,40,37,34,87,74,61,29.97,29.80,5,1,7,0.00
2013-12-3,54,45,33,48,41,31,96,87,75,29.90,29.80,10,2,13,0.00
2013-12-4,62,55,46,56,51,44,95,87,80,29.89,29.73,14,4,20,0.00
2013-12-5,62,49,32,59,46,31,96,89,77,30.18,29.77,13,4,18,0.82
2013-12-6,33,30,26,31,28,25,95,94,92,30.42,30.14,6,2,7,0.16
2013-12-7,28,24,19,25,22,16,94,89,83,30.63,30.41,5,1,7,0.30
2013-12-8,32,26,20,31,23,16,96,89,83,30.57,30.05,8,3,12,0.05
2013-12-9,33,30,26,32,28,23,96,91,82,30.27,30.03,9,3,17,0.01
2013-12-10,28,24,18,23,18,13,90,80,67,30.41,30.18,12,3,20,0.03
2013-12-11,34,23,13,24,17,9,91,77,63,30.55,30.33,12,4,17,0.00
2013-12-12,24,18,10,12,8,3,80,64,44,30.61,30.39,9,3,13,0.00
2013-12-13,38,29,19,30,18,11,85,66,51,30.41,30.17,10,3,14,0.00
2013-12-14,39,36,33,38,34,28,97,92,79,30.18,29.73,13,3,20,0.43
2013-12-15,33,30,28,32,24,20,94,80,67,30.16,29.89,13,5,20,0.00
2013-12-16,35,32,28,32,29,22,93,89,77,30.16,30.02,7,2,12,0.06
2013-12-17,35,32,29,33,27,23,93,84,75,30.21,30.01,13,3,16,0.00
2013-12-18,36,30,24,25,20,17,90,67,47,30.31,30.10,14,4,22,0.00
2013-12-19,55,45,34,39,30,20,63,56,48,30.13,29.98,13,5,24,0.00
2013-12-20,58,53,47,56,45,32,93,75,47,29.98,29.84,16,7,28,0.06
2013-12-21,66,60,56,62,58,54,97,94,86,29.85,29.45,21,8,36,1.77
2013-12-22,61,53,40,60,49,37,96,87,74,30.06,29.52,20,6,28,0.35
2013-12-23,40,33,25,37,25,17,88,73,61,30.42,30.05,12,5,16,0.00
2013-12-24,26,19,14,21,12,7,87,73,58,30.61,30.40,10,3,14,0.00
2013-12-25,36,27,16,20,16,12,88,63,44,30.56,30.23,12,3,18,0.00
2013-12-26,39,34,29,26,22,20,76,63,47,30.39,30.21,12,3,18,0.00
2013-12-27,47,36,28,30,26,22,81,66,50,30.45,30.32,9,3,12,0.00
2013-12-28,51,41,33,32,28,26,75,61,47,30.32,30.04,10,4,16,0.00
2013-12-29,43,40,34,41,36,26,96,87,51,30.05,29.83,13,3,18,0.38
2013-12-30,34,28,24,30,21,16,87,74,63,30.28,30.05,10,4,14,0.00
2013-12-31,34,28,23,20,17,15,79,65,49,30.43,30.22,13,3,22,0.00
2014-1-1,46,33,22,30,24,19,92,71,47,30.33,30.03,10,2,16,0.00
2014-1-2,35,26,11,32,22,6,95,87,74,30.32,29.84,10,2,12,0.15